Regional Weather Roundup
Issued by NWS

Home | Current Version | Previous Version | Text Only | Print | Product List | Glossary On
Versions: 1 2 3 4 5 6 7 8 9 10 11 12 13 14 15 16 17 18 19 20 21 22 23 24 25 26 27 28
000
ASUS44 KJAN 251810
RWRMS

MISSISSIPPI HOURLY WEATHER ROUNDUP
NATIONAL WEATHER SERVICE JACKSON MS
100 PM CDT MON SEP 25 2017

NOTE: "FAIR: INDICATES FEW OR NO CLOUDS BELOW 12,000 FEET WITH NO
SIGNIFICANT WEATHER AND/OR OBSTRUCTIONS TO VISIBILITY.

MSZ001>002-007>008-010>013-018>021-025>028-034>036-251900-
NORTHWEST MISSISSIPPI

CITY           SKY/WX    TMP DP  RH WIND       PRES   REMARKS
BATESVILLE     FAIR      87  64  46 NE3       29.98F
CLARKSDALE       N/A     86  66  51 CALM      29.97F
CLEVELAND      FAIR      87  66  50 E8        29.96F
GREENWOOD      SUNNY     86  68  54 E7        29.97F
6HR MIN TEMP:  66; 6HR MAX TEMP:  87;

GREENVILLE     MOSUNNY   87  64  46 S5        29.95F
6HR MIN TEMP:  64; 6HR MAX TEMP:  88;

OLIVE BRANCH   PTSUNNY  N/A N/A N/A E9        29.98F
TUNICA           N/A    N/A N/A N/A E7        29.98F
WINONA         MOCLDY    84  69  60 E3        29.97F
$$

MSZ003>006-009-014>017-022>024-029>033-037>039-251900-
NORTHEAST MISSISSIPPI

CITY           SKY/WX    TMP DP  RH WIND       PRES   REMARKS
COLUMBUS AFB   CLOUDY    85  70  61 E6        29.97F
6HR MIN TEMP:  68; 6HR MAX TEMP:  87;

GOLDN TRIANGLE CLOUDY    86  68  54 E9        29.98F
STARKVILLE     FAIR      88  64  45 E3        29.98F
TUPELO         PTSUNNY   87  63  44 VRB7      29.98F
6HR MIN TEMP:  67; 6HR MAX TEMP:  88;

$$

MSZ040-058-251900-
CENTRAL MISSISSIPPI

CITY           SKY/WX    TMP DP  RH WIND       PRES   REMARKS
JACKSON INTL   CLOUDY    84  67  56 E5        29.95F
6HR MIN TEMP:  68; 6HR MAX TEMP:  87;

JACKSON HAWKNS MOSUNNY   85  67  54 NE6       29.96F
6HR MIN TEMP:  67; 6HR MAX TEMP:  86;

MADISON        FAIR      82  64  54 E5        29.96F
MERIDIAN KEY   CLOUDY    84  69  60 SE7       29.96F
6HR MIN TEMP:  70; 6HR MAX TEMP:  85; 6HR PCP: TRACE;

MERIDIAN NAS   PTSUNNY   85  69  58 SE7       29.96F
6HR MIN TEMP:  70; 6HR MAX TEMP:  86; 6HR PCP:  0.01;

RAYMOND        FAIR      86  66  51 CALM      29.95F
VICKSBURG VKS  CLEAR     88  68  51 NE8       29.95F HX  91
$$

MSZ059>079-251900-
SOUTH MISSISSIPPI

CITY           SKY/WX    TMP DP  RH WIND       PRES   REMARKS
COLUMBIA       FAIR      84 N/A N/A E5        29.98F
HATTIESBURG    CLOUDY    79  70  74 E8        29.95F
6HR MIN TEMP:  68; 6HR MAX TEMP:  83;

LAUREL         FAIR      81  66  60 E3        29.96F
MCCOMB         SUNNY     84  64  50 E10       29.94F
6HR MIN TEMP:  67; 6HR MAX TEMP:  86;

NATCHEZ        MOSUNNY   85  68  56 E8        29.94F
6HR MIN TEMP:  64; 6HR MAX TEMP:  85;

PINE BELT      PTSUNNY   82  69  64 SE10      29.96F
6HR MIN TEMP:  68; 6HR MAX TEMP:  84;

$$

MSZ080>082-251900-
COASTAL MISSISSIPPI

CITY           SKY/WX    TMP DP  RH WIND       PRES   REMARKS
BILOXI         CLOUDY    82  72  71 SE7       29.91F
6HR MIN TEMP:  71; 6HR MAX TEMP:  85;

PASCAGOULA     TSTM      76  73  91 NW3       29.91F FOG
6HR MIN TEMP:  70; 6HR MAX TEMP:  85; 6HR PCP:  0.04;

GULFPORT       PTSUNNY   85  71  63 E8        29.90F HX  90
6HR MIN TEMP:  71; 6HR MAX TEMP:  86;

$$

LAZ007>009-015>016-023>026-251900-
NORTHEAST LOUISIANA

CITY           SKY/WX    TMP DP  RH WIND       PRES   REMARKS
BASTROP        FAIR      85  66  52 E3        29.96F
TALLULAH/VBURG SUNNY     86  67  52 MISG      29.95F
6HR MIN TEMP:  64; 6HR MAX TEMP:  88;

VIDALIA        MOCLDY   N/A N/A N/A MISG      29.92F
$$




USA.gov is the U.S. government's official web portal to all federal, state and local government web resources and services.